Bennington, VT

8:53 AM EST on December 15, 2019 (GMT -0500)
Morse State

Weather History for KDDH - September, 2019

Change the Weather History Date:

Monday, September 23, 2019

  Actual Average Record
Temperature  
Mean Temperature 74 °F 56 °F  
Max Temperature 84 °F 68 °F 84 °F (2017)
Min Temperature 64 °F 45 °F 0 °F (2004)
Degree Days  
Heating Degree Days 0 9  
Month to date heating degree days 133 130  
Since 1 July heating degree days 168 202  
Cooling Degree Days 9 0  
Month to date cooling degree days 21 22  
Year to date cooling degree days 372 310  
Growing Degree Days 23 (Base 50)    
Moisture  
Dew Point 63 °F    
Average Humidity 72    
Maximum Humidity 93    
Minimum Humidity 51    
Precipitation  
Precipitation 0.31 in 0.13 in 1.42 in (2003)
Month to date precipitation 1.84 2.62  
Year to date precipitation 29.31 30.16  
Sea Level Pressure  
Sea Level Pressure 29.78 in    
Wind  
Wind Speed 5 mph (SW)    
Max Wind Speed 22 mph    
Max Gust Speed 32 mph    
Visibility 9 miles    
Events Rain    
T = Trace of Precipitation, MM = Missing Value Source: NWS Daily Summary

Daily Weather History Graph

Daily Weather History Graph

Search for Another Location

Airport or City:

Astronomy

Sep. 23, 2019 Rise Set
Actual Time 6:41 AM EDT 6:48 PM EDT
Civil Twilight 6:12 AM EDT 7:17 PM EDT
Nautical Twilight 5:39 AM EDT 7:50 PM EDT
Astronomical Twilight 5:05 AM EDT 8:23 PM EDT
Moon 12:12 AM EDT (9/23) 3:49 PM EDT (9/23)
Length of Visible Light 13h 04m
Length of Day
12h 07m
Waning Crescent, 33% of the Moon is Illuminated
Sep 23
Waning Crescent
Sep 28
New
Oct 5
First Quarter
Oct 13
Full
Oct 21
Last Quarter

Hourly Weather History & Observations

Time (EDT) Temp. Heat Index Dew Point Humidity Pressure Visibility Wind Dir Wind Speed Gust Speed Precip Events Conditions
12:54 AM 75.0 °F - 63.0 °F 66% 29.92 in 10.0 mi West 5.8 mph - N/A   Clear
1:54 AM 70.0 °F - 62.1 °F 76% 29.90 in 10.0 mi Variable 3.5 mph - N/A   Clear
2:54 AM 64.9 °F - 62.1 °F 90% 29.89 in 10.0 mi SE 3.5 mph - N/A   Clear
3:54 AM 64.9 °F - 62.1 °F 90% 29.87 in 10.0 mi Calm Calm - N/A   Clear
4:54 AM 64.9 °F - 61.0 °F 87% 29.85 in 10.0 mi Variable 3.5 mph - N/A   Clear
5:54 AM 73.9 °F - 63.0 °F 68% 29.84 in 10.0 mi SW 5.8 mph - N/A   Clear
6:54 AM 73.9 °F - 63.0 °F 68% 29.85 in 10.0 mi SW 4.6 mph - N/A   Clear
7:54 AM 73.9 °F - 63.0 °F 68% 29.84 in 10.0 mi SW 5.8 mph - N/A   Clear
8:54 AM 75.0 °F - 63.0 °F 66% 29.82 in 10.0 mi SW 5.8 mph - N/A   Clear
9:54 AM 75.9 °F - 63.0 °F 64% 29.81 in 10.0 mi SW 6.9 mph - N/A   Clear
10:54 AM 80.1 °F 81.5 °F 63.0 °F 56% 29.79 in 10.0 mi Variable 6.9 mph 18.4 mph N/A   Clear
11:54 AM 82.0 °F 83.0 °F 62.1 °F 51% 29.78 in 10.0 mi WSW 8.1 mph - N/A   Mostly Cloudy
12:54 PM 81.0 °F 81.9 °F 62.1 °F 52% 29.76 in 10.0 mi WSW 10.4 mph - N/A   Mostly Cloudy
1:54 PM 80.1 °F 81.5 °F 63.0 °F 56% 29.75 in 10.0 mi WSW 5.8 mph - N/A   Mostly Cloudy
2:54 PM 79.0 °F - 64.9 °F 62% 29.74 in 10.0 mi Calm Calm - 0.00 in   Overcast
3:54 PM 79.0 °F - 64.9 °F 62% 29.72 in 10.0 mi Calm Calm - N/A   Overcast
4:54 PM 79.0 °F - 64.9 °F 62% 29.70 in 10.0 mi SW 3.5 mph - N/A   Mostly Cloudy
5:54 PM 75.9 °F - 66.0 °F 71% 29.69 in 10.0 mi NW 5.8 mph - N/A   Overcast
6:24 PM 71.1 °F - 64.9 °F 81% 29.73 in 2.0 mi WSW 5.8 mph - 0.07 in Rain Light Rain
6:32 PM 70.0 °F - 66.0 °F 87% 29.72 in 7.0 mi SW 4.6 mph - 0.07 in Rain Light Rain
6:54 PM 70.0 °F - 66.0 °F 87% 29.70 in 7.0 mi SSE 5.8 mph - 0.08 in Rain Light Rain
7:54 PM 69.1 °F - 66.0 °F 90% 29.67 in 10.0 mi West 3.5 mph - 0.01 in   Overcast
8:54 PM 66.0 °F - 63.0 °F 90% 29.76 in 9.0 mi SSW 6.9 mph - 0.15 in Rain Light Rain
9:54 PM 64.9 °F - 63.0 °F 93% 29.73 in 10.0 mi SW 3.5 mph - 0.03 in   Overcast
10:54 PM 66.0 °F - 62.1 °F 87% 29.73 in 10.0 mi WSW 6.9 mph - 0.00 in   Overcast
11:14 PM 66.0 °F - 62.1 °F 87% 29.75 in 10.0 mi WSW 4.6 mph - N/A   Overcast
11:54 PM 64.9 °F - 62.1 °F 90% 29.74 in 8.0 mi SW 8.1 mph - 0.03 in Rain Light Rain